Probability
0 0 0 0 0 0 0 0 0 0 0 0 0 0 0 0 0 0 0 0 0 0 0 0 0 0 0 0 0 0 0 0 0 0 0 0 0 0 0 0 0 0 0 0
0 0 0 0 0 0 0 0 0 0 0 0 0 0 0 0 0 0 0 0 0 0 0 0 0 0 0 0 0 0 0 0 0 0 0 0 0 0 0 0 0 0 0 0
0 0 0 0 0 0 0 0 0 0 0 0 0 0 0 0 0 0 0 0 0 0 0 0 0 0 0 0 0 0 0 0 0 0 0 0 0 0 0 0 0 0 0 0
0 0 0 0 0 0 0 0 0 0 0 0 0 0 0 0 0 0 0 0 0 0 0 0 0 0 0 0 0 0 0 0 0 0 0 0 0 0 0 0 0 0 0 0
0 0 0 0 0 0 0 0 0 0 0 0 0 0 0 0 0 0 0 0 0 0 0 0 0 0 0 0 0 0 0 0 0 0 0 0 0 0 0 0 0 0 0 0
0 0 0 0 0 0 0 0 0 0 0 0 0 0 0 0 0 0 0 0 0 0 0 0 0 0 0 0 0 0 0 0 0 0 0 0 0 0 0 0 0 0 0 0
0 0 0 0 0 0 0 0 0 0 0 0 0 0 0 0 0 0 0 0 0 0 0 0 0 0 0 0 0 0 0 0 0 0 0 0 0 0 0 0 0 0 0 0
0 0 0 0 0 0 0 0 0 0 0 0 0 0 0 0 0 0 0 0 0 0 0 0 0 0 0 0 0 0 0 0 0 0 0 0 0 0 0 0 0 0 0 0
0 0 0 0 0 0 0 0 0 0 0 0 0 0 0 0 0 0 0 0 0 0 0 0 0 0 0 0 0 0 0 0 0 0 0 0 0 0 0 0 0 0 0 0
0 0 0 0 0 0 0 0 0 0 0 0 0 0 0 0 0 0 0 0 0 0 0 0 0 0 0 0 0 0 0 0 0 0 0 0 0 0 0 0 0 0 0 0
0 0 0 0 0 0 0 0 0 0 0 0 0 0 0 0 0 0 0 0 0 0 0 0 0 0 0 0 0 0 0 0 0 0 0 0 0 0 0 0 0 0 0 0
0 0 0 0 0 0 0 0 0 0 0 0 0 0 0 0 0 0 0 0 0 0 0 0 0 0 0 0 0 0 0 0 0 0 0 0 0 0 0 0 0 0 0 0
0 0 0 0 0 0 0 0 0 0 0 0 0 0 0 0 0 0 0 0 0 0 0 0 0 0 0 0 0 0 0 0 0 0 0 0 0 0 0 0 0 0 0 0
0 0 0 0 0 0 0 0 0 0 0 0 0 0 0 0 0 0 0 0 0 0 0 0 0 0 0 0 0 0 0 0 0 0 0 0 0 0 0 0 0 0 0 0
0 0 0 0 0 0 0 0 0 0 0 0 0 0 0 0 0 0 0 0 0 0 0 0 0 0 0 0 0 0 0 0 0 0 0 0 0 0 0 0 0 0 0 0
0 0 0 0 0 0 0 0 0 0 0 0 0 0 0 0 0 0 0 0 0 0 0 0 0 0 0 0 0 0 0 0 0 0 0 0 0 0 0 0 0 0 0 0
0 0 0 0 0 0 0 0 0 0 0 0 0 0 0 0 0 0 0 0 0 0 0 0 0 0 0 0 0 0 0 0 0 0 0 0 0 0 0 0 0 0 0 0
0 0 0 0 0 0 0 0 0 0 0 0 0 0 0 0 0 0 0 0 0 0 0 0 0 0 0 0 0 0 0 0 0 0 0 0 0 0 0 0 0 0 0 0
0 0 0 0 0 0 0 0 0 0 0 0 0 0 0 0 0 0 0 0 0 0 0 0 0 0 0 0 0 0 0 0 0 0 0 0 0 0 0 0 0 0 0 0
0 0 0 0 0 0 0 0 0 0 0 0 0 0 0 0 0 0 0 0 0 0 0 0 0 0 0 0 0 0 0 0 0 0 0 0 0 0 0 0 0 0 0 0
0 0 0 0 0 0 0 0 0 0 0 0 0 0 0 0 0 0 0 0 0 0 0 0 0 0 0 0 0 0 0 0 0 0 0 0 0 0 0 0 0 0 0 0
0 0 0 0 0 0 0 0 0 0 0 0 0 0 0 0 0 0 0 0 0 0 0 0 0 0 0 0 0 0 0 0 0 0 0 0 0 0 0 0 0 0 0 0
0 0 0 0 0 0 0 0 0 0 0 0 0 0 0 0 0 0 0 0 0 0 0 0 0 0 0 0 0 0 0 0 0 0 0 0 0 0 0 0 0 0 0 0
0 0 0 0 0 0 0 0 0 0 0 0 0 0 0 0 0 0 0 0 0 0 0 0 0 0 0 0 0 0 0 0 0 0 0 0 0 0 0 0 0 0 0 0
0 0 0 0 0 0 0 0 0 0 0 0 0 0 0 0 0 0 0 0 0 0 0 0 0 0 0 0 0 0 0 0 0 0 0 0 0 0 0 0 0 0 0 0
0 0 0 0 0 0 0 0 0 0 0 0 0 0 0 0 0 0 0 0 0 0 0 0 0 0 0 0 0 0 0 0 0 0 0 0 0 0 0 0 0 0 0 0
0 0 0 0 0 0 0 0 0 0 0 0 0 0 0 0 0 0 0 0 0 0 0 0 0 0 0 0 0 0 0 0 0 0 0 0 0 0 0 0 0 0 0 0
Wind_Speed
17 9 9 12 15 19 23 24 20 23 25 18 11 13 11 8 6 7 10 13 17 18 17 17 17 17 17 16 16 16 16 16 16 13 12 12 12 12 11 11 11 10 9 8
17 13 9 8 15 23 28 22 26 26 35 14 8 10 11 12 11 12 14 18 20 19 19 20 21 20 19 19 18 17 17 16 13 13 13 13 13 12 12 11 9 9 9 9
17 13 7 19 28 21 17 16 14 27 36 12 11 14 18 17 14 16 18 20 21 22 23 23 23 22 22 20 16 16 15 13 13 14 14 13 12 12 13 12 10 10 9 9
8 11 23 21 14 19 23 23 20 20 18 10 16 18 17 14 14 18 19 18 18 19 20 19 17 16 14 13 15 15 14 14 14 14 14 12 12 13 12 9 10 10 10 10
10 18 16 16 8 14 19 26 28 29 28 23 14 10 17 13 15 18 17 16 17 18 18 16 16 16 15 15 15 15 16 16 15 15 14 14 14 13 10 9 10 10 8 9
13 12 13 13 6 10 12 20 16 18 26 25 13 14 23 12 12 15 13 11 11 10 10 13 15 16 17 16 16 18 18 16 14 14 15 15 15 12 8 9 10 9 8 8
20 17 11 8 5 10 13 15 4 12 17 15 13 17 10 3 4 7 6 5 6 9 11 13 15 17 17 17 19 17 13 12 13 14 14 13 11 9 8 8 7 7 7 6
12 15 14 7 10 14 9 2 2 2 3 5 6 5 4 3 2 1 1 3 6 8 8 10 14 16 16 17 14 11 12 13 13 12 11 9 10 9 9 9 8 8 6 5
9 8 3 7 6 3 2 3 2 2 1 2 2 2 1 1 2 3 3 4 4 8 8 7 10 12 14 10 11 12 12 12 10 10 9 9 10 10 8 8 7 7 6 7
5 6 3 3 2 2 2 2 2 1 1 2 2 1 1 2 2 3 4 4 5 8 9 6 5 6 7 9 11 12 12 10 9 9 8 7 6 7 8 8 8 7 7 6
6 3 1 5 6 5 3 2 2 2 2 2 3 2 2 2 3 3 3 3 4 6 8 7 7 7 7 9 11 10 9 8 8 7 8 7 5 5 7 5 7 8 6 5
6 5 6 4 4 7 6 4 4 3 2 2 2 3 3 3 3 3 4 4 5 6 7 7 7 7 6 6 9 10 8 7 6 6 5 6 6 3 5 6 8 9 9 7
2 2 3 1 2 5 5 5 4 3 3 2 2 3 4 3 3 4 4 5 5 6 6 7 7 6 4 5 7 8 8 7 6 6 6 6 6 7 5 3 5 6 6 6
2 2 2 1 2 4 5 5 5 4 3 3 3 4 4 4 4 5 4 4 5 6 6 6 6 5 3 4 6 6 6 7 6 6 6 6 6 5 5 6 5 2 1 2
5 3 2 4 5 5 4 5 5 4 3 4 3 4 5 5 5 4 4 5 6 6 5 5 5 3 2 3 5 6 6 5 5 5 5 5 5 5 4 5 4 3 1 1
5 4 6 6 6 5 5 4 5 3 3 3 4 4 4 6 7 6 5 4 5 5 3 4 3 2 2 3 5 4 4 6 6 5 5 5 5 5 5 5 4 4 3 2
1 3 4 3 4 4 5 4 4 4 4 4 3 4 6 7 7 6 6 6 7 6 5 4 3 3 3 3 4 4 4 5 6 5 5 5 5 5 5 5 4 4 3 4
5 4 4 2 2 4 5 6 6 5 4 3 3 5 5 5 4 4 4 5 6 7 6 5 3 4 4 4 4 4 4 4 4 4 4 4 4 4 4 4 4 4 3 2
7 7 7 8 7 6 6 6 6 5 5 4 5 6 6 6 5 5 4 5 5 4 3 3 3 5 4 3 4 4 4 5 4 4 4 5 5 4 4 4 4 3 3 2
6 6 7 8 9 7 6 5 5 6 7 5 7 8 8 7 6 5 6 6 4 2 1 2 4 4 3 3 5 4 4 5 5 4 4 4 4 4 3 3 3 3 3 3
6 6 7 7 8 8 7 6 6 7 7 8 8 8 7 6 5 5 4 4 4 3 3 4 3 3 3 3 4 4 4 4 4 4 4 3 3 3 3 3 3 3 3 3
5 6 7 7 8 8 7 7 7 7 8 9 8 7 7 6 6 6 5 3 1 2 2 2 2 2 3 3 3 3 3 3 3 3 3 3 3 3 3 3 3 3 3 4
5 6 7 7 6 6 7 8 8 8 8 8 7 7 6 5 4 3 3 2 1 2 2 1 2 3 4 3 2 2 2 2 2 2 3 3 3 3 3 4 4 4 4 4
7 7 6 5 6 8 9 7 6 6 6 7 6 6 4 3 4 4 2 2 3 3 2 1 2 3 4 2 1 1 1 2 2 2 2 2 3 3 3 3 4 4 4 5
7 7 7 7 8 6 5 5 6 7 7 6 6 6 5 3 3 2 3 3 4 3 2 3 3 3 2 1 1 1 1 2 2 2 3 3 3 3 4 4 4 5 5 5
7 7 7 7 5 4 4 4 4 4 4 4 4 4 4 4 3 3 2 3 3 3 2 2 2 2 1 1 1 2 2 2 3 3 3 4 4 4 4 5 6 5 5 5
7 6 6 6 6 5 4 4 4 4 3 3 3 3 4 3 3 3 3 3 2 2 2 2 2 2 2 2 2 3 3 3 3 4 4 4 4 5 5 6 5 5 5 6
Wind_Direction
237 214 179 198 206 208 213 222 231 247 252 242 214 231 238 234 214 195 196 196 198 199 197 193 192 192 190 187 182 179 178 182 183 177 172 168 170 171 171 173 176 174 172 173
242 230 207 220 224 217 220 229 237 252 257 248 224 230 239 232 215 209 209 209 208 204 199 197 195 193 189 188 184 181 184 185 177 172 172 174 174 172 173 176 174 173 180 180
240 231 218 236 231 220 220 221 218 240 253 250 233 231 236 234 219 216 217 215 211 206 203 201 197 192 191 187 177 180 184 178 174 175 178 179 175 175 180 180 176 182 187 188
234 215 231 241 227 210 222 232 227 242 255 236 230 240 243 235 224 227 225 221 215 210 207 202 192 185 178 168 172 179 180 179 177 177 180 176 177 184 184 178 183 189 193 196
225 240 250 262 217 192 209 237 230 235 249 252 246 275 269 243 231 235 229 222 216 209 202 189 181 173 164 168 171 178 184 185 182 180 179 179 186 189 184 179 187 194 192 196
225 232 232 245 205 176 175 246 234 218 240 249 242 250 262 252 232 236 233 222 210 190 173 168 167 158 162 170 175 187 190 186 180 179 182 187 191 187 180 184 192 191 199 201
231 239 243 242 172 135 180 238 215 203 227 239 227 236 271 316 256 240 230 209 173 158 163 165 157 158 167 173 188 189 176 171 175 182 187 188 183 177 174 180 181 190 202 205
224 235 240 182 152 180 206 152 161 215 241 241 244 270 308 310 297 304 115 123 139 143 145 146 153 160 171 185 183 159 161 171 177 181 181 176 174 175 174 177 185 195 200 213
206 224 237 172 189 190 136 162 183 213 253 228 237 267 330 18 36 48 77 94 105 120 119 130 154 163 173 171 146 150 160 170 171 170 173 171 174 174 171 176 188 195 199 217
214 233 218 217 231 208 184 173 168 192 192 179 188 167 123 97 78 69 67 76 96 113 119 120 127 135 141 137 142 148 157 160 160 163 164 162 167 169 174 181 189 193 199 212
222 230 275 247 221 203 184 162 136 107 110 137 141 145 149 134 118 103 89 77 99 117 121 116 108 104 115 132 137 141 144 146 149 153 156 157 159 174 178 185 188 190 197 192
216 202 192 219 196 179 176 175 165 140 112 101 143 152 139 134 128 123 117 109 108 108 114 115 113 110 115 130 137 137 139 145 148 147 147 149 148 137 187 179 196 203 193 188
192 182 177 126 128 159 164 161 155 148 143 133 114 127 133 128 128 123 120 122 125 124 122 122 119 116 116 125 133 141 147 151 148 150 154 158 160 163 163 175 190 197 202 203
54 117 146 125 102 132 136 134 125 108 89 93 99 103 111 110 115 121 124 121 113 111 113 119 120 117 106 122 130 135 137 146 151 156 159 161 165 165 163 166 170 182 229 217
20 27 100 91 79 82 98 112 112 108 96 78 81 102 114 119 119 105 91 98 100 99 104 116 122 115 83 121 133 138 140 144 145 143 145 146 146 147 150 157 158 152 120 34
329 46 68 81 80 73 79 96 112 111 97 88 82 85 93 100 97 85 70 82 108 116 117 119 116 95 82 116 126 127 133 141 139 140 139 141 144 148 152 154 155 158 171 180
40 78 57 72 74 67 60 57 74 83 78 71 71 88 95 98 93 81 63 52 68 72 62 75 85 69 69 100 121 126 125 131 132 130 139 145 147 151 152 153 159 165 180 200
14 25 21 28 57 80 62 45 43 45 38 30 68 84 87 94 102 98 87 80 79 65 44 40 67 72 71 82 97 108 116 120 125 131 130 132 135 137 142 149 158 166 171 223
20 29 34 36 34 56 56 41 27 24 16 32 73 76 68 62 72 84 82 76 74 65 25 2 80 80 77 95 101 100 111 115 114 114 119 127 127 131 142 152 161 172 178 191
32 37 49 50 44 47 46 29 28 36 23 36 76 77 68 53 57 71 74 68 41 7 28 53 68 73 68 85 102 103 114 122 127 129 129 135 142 148 157 165 173 183 196 211
36 44 53 58 56 46 36 28 42 47 36 44 67 76 75 60 52 59 69 65 16 16 57 71 72 72 69 84 93 102 112 121 130 138 143 146 152 162 175 183 193 204 214 224
40 53 59 60 65 56 37 35 47 56 57 57 60 67 71 62 54 54 51 55 30 44 61 66 75 89 96 92 92 104 113 122 129 137 149 159 172 186 196 204 213 220 225 230
56 63 66 62 64 66 55 47 47 55 59 56 55 56 62 56 38 54 58 23 12 63 69 71 129 133 117 95 101 112 125 138 152 167 178 187 195 203 211 219 224 228 233 237
67 65 63 62 66 68 62 46 44 50 54 53 46 42 49 58 42 30 50 43 42 60 51 303 192 140 121 106 121 141 163 183 195 202 207 211 214 218 224 230 236 237 239 244
68 64 60 60 62 59 56 52 50 46 48 46 37 30 29 37 61 33 25 26 37 47 23 4 32 92 108 136 190 213 218 220 222 220 222 226 227 229 233 236 239 243 244 244
65 64 60 55 52 46 43 48 52 39 37 41 28 16 14 17 29 28 23 19 17 18 11 1 6 18 344 263 249 247 244 245 246 239 235 237 238 239 240 242 244 244 245 245
60 56 54 51 39 32 33 40 46 34 24 29 20 1 2 5 8 8 4 356 349 341 329 319 310 296 282 272 265 260 255 252 248 246 244 242 242 243 246 246 246 246 247 248